{"data":{"norad_id":38014,"epoch":"2026-05-25T03:56:46.097088Z","epoch_age_seconds":63934,"freshness":"FRESH","line1":"1 38014U 11077A   26145.16442242  .00000142  00000+0  00000+0 0  9990","line2":"2 38014   0.0483 116.1391 0002264 239.5819 348.7507  1.00274923 52724","mean_motion":1.00274923,"eccentricity":0.0002264,"inclination_deg":0.0483,"raan_deg":116.1391,"arg_perigee_deg":239.5819,"mean_anomaly_deg":348.7507,"bstar":0,"rev_number":5272,"period_min":1436.0519628621,"perigee_km":35776.169392661,"apogee_km":35795.261184977,"semimajor_km":42163.852288819,"source":"CELESTRAK","updated_at":"2026-05-25T13:38:13.907385Z"}}